Staunton, VA

9:08 PM EDT on March 27, 2017 (GMT -0400)
Shenandoah Valley Regional

Weather History for KSHD - December, 2012

Change the Weather History Date:

Thursday, December 20, 2012

  Actual Average Record
Temperature  
Mean Temperature 38 °F -  
Max Temperature 45 °F 44 °F 62 °F (2008)
Min Temperature 30 °F 24 °F 8 °F (1996)
Degree Days  
Heating Degree Days 28    
Moisture  
Dew Point 33 °F    
Average Humidity 81    
Maximum Humidity 93    
Minimum Humidity 61    
Precipitation  
Precipitation 0.28 in - - ()
Sea Level Pressure  
Sea Level Pressure 29.95 in    
Wind  
Wind Speed 2 mph (SSW)    
Max Wind Speed 13 mph    
Max Gust Speed 20 mph    
Visibility 8 miles    
Events Rain    
Averages and records for this station are not official NWS values.
T = Trace of Precipitation, MM = Missing Value Source: NWS Daily Summary

Daily Weather History Graph

Daily Weather History Graph

Search for Another Location

Airport or City:

Trip Planner

Search our weather history database for the weather conditions in past years. The results will help you decide how hot, cold, wet, or windy it might be!

Date:

Astronomy

Dec. 20, 2012 Rise Set
Actual Time 7:28 AM EST 4:58 PM EST
Civil Twilight 6:58 AM EST 5:28 PM EST
Nautical Twilight 6:25 AM EST 6:01 PM EST
Astronomical Twilight 5:53 AM EST 6:33 PM EST
Moon 12:11 PM EST (12/20) 12:18 AM EST (12/20)
Length of Visible Light 10h 29m
Length of Day
9h 30m
First Quarter, 55% of the Moon is Illuminated
Dec 20
First Quarter
Dec 28
Full
Jan 4
Last Quarter
Jan 11
New
Jan 18
First Quarter

Hourly Weather History & Observations

Time (EST) Temp. Windchill Dew Point Humidity Pressure Visibility Wind Dir Wind Speed Gust Speed Precip Events Conditions
12:15 AM 36.9 °F - 31.5 °F 81% 30.16 in 10.0 mi Calm Calm - N/A   Clear
12:35 AM 35.8 °F - 31.1 °F 83% 30.16 in 10.0 mi Calm Calm - N/A   Clear
12:55 AM 35.6 °F - 31.3 °F 84% 30.18 in 10.0 mi Calm Calm - N/A   Clear
1:15 AM 36.3 °F - 31.5 °F 83% 30.17 in 10.0 mi Calm Calm - N/A   Clear
1:35 AM 34.7 °F - 30.9 °F 86% 30.16 in 10.0 mi Calm Calm - N/A   Clear
1:55 AM 34.7 °F - 30.9 °F 86% 30.17 in 10.0 mi Calm Calm - N/A   Clear
2:15 AM 33.8 °F - 30.6 °F 88% 30.17 in 10.0 mi Calm Calm - N/A   Clear
2:35 AM 32.9 °F - 30.2 °F 90% 30.18 in 7.0 mi Calm Calm - N/A   Clear
2:55 AM 32.7 °F - 29.7 °F 88% 30.18 in 7.0 mi Calm Calm - N/A   Clear
3:15 AM 33.3 °F - 30.2 °F 89% 30.17 in 10.0 mi Calm Calm - N/A   Clear
3:35 AM 32.7 °F - 29.5 °F 88% 30.18 in 7.0 mi Calm Calm - N/A   Clear
3:55 AM 32.4 °F - 29.7 °F 90% 30.17 in 7.0 mi Calm Calm - N/A   Clear
4:15 AM 32.0 °F - 28.8 °F 88% 30.17 in 7.0 mi Calm Calm - N/A   Clear
4:35 AM 31.1 °F - 28.4 °F 90% 30.17 in 7.0 mi Calm Calm - N/A   Clear
4:55 AM 31.1 °F - 28.2 °F 89% 30.19 in 7.0 mi Calm Calm - N/A   Clear
5:15 AM 30.6 °F - 28.0 °F 90% 30.18 in 7.0 mi Calm Calm - N/A   Clear
5:35 AM 30.7 °F - 28.2 °F 90% 30.17 in 7.0 mi Calm Calm - N/A   Clear
5:55 AM 30.0 °F - 27.5 °F 90% 30.17 in 5.0 mi Calm Calm - N/A   Clear
6:15 AM 30.2 °F - 27.5 °F 90% 30.16 in 7.0 mi Calm Calm - N/A   Clear
6:35 AM 30.9 °F - 28.2 °F 90% 30.16 in 7.0 mi Calm Calm - N/A   Clear
6:55 AM 30.9 °F - 28.2 °F 90% 30.16 in 7.0 mi Calm Calm - N/A   Clear
7:15 AM 30.7 °F - 27.9 °F 89% 30.15 in 7.0 mi Calm Calm - N/A   Clear
7:35 AM 30.7 °F - 27.3 °F 87% 30.14 in 7.0 mi Calm Calm - N/A   Clear
7:55 AM 31.1 °F - 28.4 °F 90% 30.14 in 5.0 mi Calm Calm - N/A   Clear
8:15 AM 30.7 °F - 28.0 °F 90% 30.13 in 5.0 mi Calm Calm - N/A   Clear
8:35 AM 31.1 °F - 28.4 °F 90% 30.13 in 7.0 mi Calm Calm - N/A   Clear
8:55 AM 32.5 °F - 30.4 °F 92% 30.13 in 5.0 mi Calm Calm - N/A   Clear
9:15 AM 35.2 °F - 32.0 °F 88% 30.12 in 5.0 mi Calm Calm - N/A   Clear
9:35 AM 38.3 °F 35.9 °F 33.6 °F 83% 30.11 in 7.0 mi South 3.5 mph - N/A   Clear
9:55 AM 43.0 °F 37.7 °F 34.0 °F 71% 30.09 in 10.0 mi SSE 9.2 mph - N/A   Clear
10:15 AM 44.1 °F 40.1 °F 33.1 °F 65% 30.09 in 10.0 mi SSE 6.9 mph - N/A   Clear
10:35 AM 43.9 °F 38.8 °F 32.0 °F 63% 30.08 in 10.0 mi SSE 9.2 mph - N/A   Scattered Clouds
10:55 AM 44.2 °F 41.0 °F 32.0 °F 62% 30.09 in 10.0 mi South 5.8 mph - N/A   Scattered Clouds
11:15 AM 43.7 °F 38.1 °F 32.0 °F 63% 30.08 in 10.0 mi SSE 10.4 mph - N/A   Scattered Clouds
11:35 AM 43.7 °F 38.1 °F 32.0 °F 63% 30.07 in 10.0 mi South 10.4 mph - N/A   Clear
11:55 AM 43.7 °F 39.7 °F 32.2 °F 64% 30.07 in 10.0 mi South 6.9 mph - N/A   Clear
12:15 PM 43.7 °F 39.7 °F 32.4 °F 64% 30.07 in 10.0 mi South 6.9 mph - N/A   Scattered Clouds
12:35 PM 43.9 °F 39.9 °F 32.4 °F 64% 30.05 in 10.0 mi SSE 6.9 mph - N/A   Overcast
12:55 PM 43.9 °F 40.5 °F 32.7 °F 65% 30.03 in 10.0 mi SSE 5.8 mph - N/A   Light Drizzle
1:15 PM 44.2 °F 41.8 °F 32.2 °F 63% 30.00 in 10.0 mi SSE 4.6 mph - N/A   Overcast
1:35 PM 44.2 °F 40.3 °F 32.0 °F 62% 29.98 in 10.0 mi South 6.9 mph - N/A   Overcast
1:55 PM 44.6 °F 40.2 °F 32.4 °F 62% 29.96 in 10.0 mi South 8.1 mph - N/A   Light Drizzle
2:15 PM 44.8 °F 41.6 °F 32.0 °F 61% 29.95 in 10.0 mi South 5.8 mph - N/A   Overcast
2:35 PM 44.8 °F 41.6 °F 32.0 °F 61% 29.91 in 10.0 mi SSW 5.8 mph - N/A   Overcast
2:55 PM 45.3 °F 43.0 °F 32.4 °F 61% 29.90 in 10.0 mi South 4.6 mph - N/A   Overcast
3:15 PM 45.5 °F 40.8 °F 32.5 °F 61% 29.89 in 10.0 mi SSW 9.2 mph - N/A   Overcast
3:35 PM 44.6 °F 38.4 °F 32.5 °F 63% 29.89 in 10.0 mi SSW 12.7 mph - N/A   Overcast
3:55 PM 44.2 °F 38.4 °F 32.9 °F 64% 29.89 in 10.0 mi South 11.5 mph 19.6 mph N/A   Light Drizzle
4:15 PM 43.5 °F 39.4 °F 33.8 °F 69% 29.86 in 10.0 mi South 6.9 mph - N/A Rain Light Rain
4:35 PM 43.0 °F 37.7 °F 34.7 °F 73% 29.85 in 10.0 mi South 9.2 mph - N/A Rain Light Rain
4:55 PM 43.2 °F 37.0 °F 35.8 °F 75% 29.82 in 10.0 mi South 11.5 mph - N/A   Light Drizzle
5:15 PM 43.0 °F 40.3 °F 36.3 °F 77% 29.80 in 10.0 mi ESE 4.6 mph - N/A Rain Rain
5:35 PM 42.1 °F 38.4 °F 35.6 °F 78% 29.80 in 10.0 mi SSE 5.8 mph - 0.01 in Rain Light Rain
5:55 PM 41.5 °F 39.6 °F 36.5 °F 82% 29.78 in 10.0 mi North 3.5 mph - 0.01 in Rain Light Rain
6:15 PM 41.9 °F - 36.3 °F 81% 29.76 in 7.0 mi Calm Calm - 0.02 in Rain Light Rain
6:35 PM 41.4 °F - 37.4 °F 86% 29.76 in 7.0 mi Calm Calm - 0.04 in Rain Light Rain
6:55 PM 41.4 °F - 37.6 °F 86% 29.73 in 7.0 mi Calm Calm - 0.06 in Rain Rain
7:15 PM 41.7 °F 39.8 °F 37.4 °F 85% 29.72 in 5.0 mi West 3.5 mph - 0.02 in Rain Light Rain
7:35 PM 41.9 °F 39.0 °F 37.8 °F 85% 29.69 in 7.0 mi West 4.6 mph - 0.05 in Rain Rain
7:55 PM 41.4 °F 39.4 °F 38.1 °F 88% 29.67 in 5.0 mi WNW 3.5 mph - 0.08 in Rain Rain
8:15 PM 41.9 °F 39.0 °F 38.8 °F 89% 29.65 in 7.0 mi West 4.6 mph - N/A   Drizzle
8:35 PM 41.7 °F 38.8 °F 39.0 °F 90% 29.62 in 7.0 mi NW 4.6 mph - N/A Rain Rain
8:55 PM 41.0 °F 37.1 °F 38.7 °F 91% 29.59 in 4.0 mi WNW 5.8 mph - 0.02 in Rain Light Rain
9:15 PM 41.0 °F 39.0 °F 38.7 °F 91% 29.56 in 4.0 mi NW 3.5 mph - 0.01 in Rain Rain
9:35 PM 40.6 °F 36.7 °F 38.7 °F 93% 29.52 in 3.0 mi NW 5.8 mph - 0.02 in Rain Heavy Rain
9:55 PM 40.5 °F 34.6 °F 38.7 °F 93% 29.51 in 3.0 mi WNW 9.2 mph - 0.03 in Rain Rain
10:15 PM 40.8 °F - 39.0 °F 93% 29.47 in 4.0 mi Calm Calm - 0.01 in Rain Rain
10:35 PM 41.0 °F 38.0 °F 39.2 °F 93% 29.45 in 3.0 mi NW 4.6 mph - 0.02 in Rain Light Rain
10:55 PM 41.0 °F 36.4 °F 39.2 °F 93% 29.43 in 3.0 mi WNW 6.9 mph - 0.03 in Rain Rain
11:15 PM 41.2 °F 35.0 °F 39.4 °F 93% 29.43 in 4.0 mi WNW 10.4 mph - 0.01 in Rain Light Rain
11:35 PM 42.8 °F 41.1 °F 41.0 °F 93% 29.43 in 3.0 mi WNW 3.5 mph - 0.04 in Rain Rain
11:55 PM 43.3 °F - 41.4 °F 93% 29.43 in 5.0 mi Calm Calm - 0.05 in Rain Light Rain